Regional Weather Roundup
Issued by NWS

Home | Current Version | Previous Version | Graphics & Text | Print | Product List | Glossary On
Versions: 1 2 3 4 5 6 7 8 9 10 11 12 13 14 15 16 17 18 19 20 21 22 23 24 25 26 27 28 29 30 31 32 33 34 35 36 37 38 39 40 41 42 43 44 45 46 47 48 49 50
000
ASUS43 KDMX 231507
RWRIA

WEATHER ROUNDUP FOR IOWA
NATIONAL WEATHER SERVICE DES MOINES IA
1000 AM CDT WED JUL 23 2014

NOTE: "FAIR" INDICATES FEW OR NO CLOUDS BELOW 12,000 FEET WITH NO
SIGNIFICANT WEATHER AND/OR OBSTRUCTIONS TO VISIBILITY.

* - THESE STATIONS ARE NOT NWS STATIONS...THUS NOT UNDER NWS
QUALITY CONTROL.  THEY ALSO DO NOT REPORT WEATHER SUCH
AS PRECIPITATION OR FOG.

IAZ001>003-012>014-020>022-031>034-043>046-231600-
   NORTHWEST IOWA

CITY           SKY/WX    TMP DP  RH WIND       PRES   REMARKS
CARROLL *      SUNNY     70  63  78 N8        30.24S
CHEROKEE *     MOSUNNY   68  61  77 N5        30.27S
DENISON *      SUNNY     72  61  68 VRB6      30.23F
LE MARS *      SUNNY     70  59  68 VRB5      30.29R
ORANGE CITY *  SUNNY     72  57  60 NE3       30.28S
SHELDON *      SUNNY     72  59  64 NE6       30.27S
SIOUX CITY     SUNNY     75  58  55 NE3       30.27R
SPENCER        MOSUNNY   71  58  63 NE5       30.27F
STORM LAKE *   SUNNY     70  61  73 VRB6      30.27S
$$

IAZ055>058-069>071-079>083-090>094-231600-
   SOUTHWEST IOWA

CITY           SKY/WX    TMP DP  RH WIND       PRES   REMARKS
ATLANTIC *     SUNNY     72  63  73 N7        30.23R
AUDUBON *      SUNNY     73  66  78 N7        30.24F
CLARINDA *     SUNNY     73  64  73 N8        30.23R
COUNCIL BLFS * SUNNY     73  63  68 NE8G14    30.23S
CRESTON *      SUNNY     72  64  78 NE9       30.22R
HARLAN  *      SUNNY     72  63  73 VRB5      30.27F
LAMONI         SUNNY     76  66  71 NE9       30.19R
RED OAK *      SUNNY     73  64  73 N10       30.23S
SHENANDOAH *   SUNNY     73  64  73 NE7       30.22S
$$

IAZ047>049-059>061-072>074-084-231600-
   CENTRAL IOWA

CITY           SKY/WX    TMP DP  RH WIND       PRES   REMARKS
AMES           SUNNY     75  64  68 NE6       30.22S
ANKENY *       SUNNY     73  64  73 NE8       30.21S
CHARITON *     SUNNY     73  66  78 N7        30.20R
DES MOINES     PTSUNNY   77  63  61 NE6       30.20S
GRINNELL*      SUNNY     73  61  64 NE8       30.22R
KNOXVILLE *    SUNNY     73  64  73 NE8       30.19R
MARSHALLTOWN   MOSUNNY   74  62  66 NE7       30.22R
PELLA *        SUNNY     77  64  65 N7        30.22R
PERRY *          N/A     72  64  78 N6        30.23S
$$

IAZ004>006-015-016-023>025-035-036-231600-
   NORTH CENTRAL IOWA

CITY           SKY/WX    TMP DP  RH WIND       PRES   REMARKS
ALGONA *       SUNNY     70  61  73 NE8       30.26S
CLARION *      MOSUNNY   73  61  64 E9        30.24F
ESTHERVILLE    SUNNY     70  59  68 NE8       30.26F
FORT DODGE *   MOSUNNY   72  63  73 NE3       30.25S
MASON CITY     SUNNY     72  60  66 E3        30.26S
FOREST CITY *  SUNNY     72  59  64 CALM      30.26S
IOWA FALLS *   PTSUNNY   73  57  56 NE7       30.24F
$$

IAZ007>011-017>019-026>030-037>042-050>054-066-231600-
   NORTHEAST IOWA

CITY           SKY/WX    TMP DP  RH WIND       PRES   REMARKS
CEDAR RAPIDS   SUNNY     73  61  65 NE14      30.19S
CHARLES CITY * SUNNY     73  57  56 VRB6      30.25S
CLINTON *      SUNNY     72  57  60 NE15      30.21R
DECORAH *      SUNNY     70  59  68 VRB5      30.24S
DUBUQUE        SUNNY     70  59  68 NE13      30.22R
MONTICELLO *   SUNNY     73  61  64 N7        30.22R
OELWEIN *      SUNNY     72  59  64 E8        30.23F
WATERLOO       SUNNY     74  60  61 E9        30.22R
$$

IAZ064-065-067-068-078-231600-
   EAST CENTRAL IOWA

CITY           SKY/WX    TMP DP  RH WIND       PRES   REMARKS
DAVENPORT      SUNNY     73  62  68 NE10      30.19R
IOWA CITY      SUNNY     73  64  73 NE13      30.19S
MT. PLEASANT * SUNNY     75  64  69 NE9       30.16S
MUSCATINE *    SUNNY     75  63  64 NE12      30.18R
QUAD CITIES    SUNNY     74  60  61 NE9       30.17R
$$

IAZ062-063-075>077-085>089-095>099-231600-
   SOUTHEAST IOWA

CITY           SKY/WX    TMP DP  RH WIND       PRES   REMARKS
BURLINGTON     PTSUNNY   75  66  73 NE13      30.15R
FAIRFIELD *    SUNNY     73  64  73 NE10      30.17S
FORT MADISON * SUNNY     75  70  83 NE9       30.16R
KEOKUK *       MOSUNNY   75  68  78 NE12      30.14R
OSKALOOSA *      N/A     75  66  73 NE10      30.20R
CENTERVILLE *  SUNNY     75  66  73 NE5       30.20R
OTTUMWA        SUNNY     75  65  70 NE12      30.16R
WASHINGTON *   SUNNY     73  66  78 NE13      30.17S
$$

ABBREVIATIONS USED IN REMARKS
   TC - TEMPERATURES IN CELSIUS
  WCI - WIND CHILL INDEX
   HX - HEAT INDEX
  VSB - VISIBILITY
$$



USA.gov is the U.S. government's official web portal to all federal, state and local government web resources and services.